Location: Colebrook
(42.0017°N, 73.0973°W)
Time: 09:49:28
(UTC-04:00)

Transit 2A - Visible Passes

Search period start: 25 October 2021 00:00
Search period end: 04 November 2021 00:00
Orbit: 593 x 965 km, 66.7° (Epoch: 24 October)

Date Brightness Start Highest point End Pass type
(mag) Time Alt. Az. Time Alt. Az. Time Alt. Az.
25 Oct 6.4 19:11:04 10° NNW 19:17:26 83° ENE 19:23:47 10° SSE visible
25 Oct 8.9 20:55:57 10° WNW 20:59:58 18° WSW 21:03:57 10° SW visible
26 Oct 6.5 18:36:53 10° NNW 18:43:10 62° NE 18:49:27 10° SE visible
26 Oct 8.5 20:20:57 10° NW 20:26:00 25° WSW 20:31:00 10° SSW visible
27 Oct 8.0 19:46:18 10° NW 19:51:59 35° WSW 19:57:37 10° S visible
28 Oct 7.4 19:11:48 10° NW 19:17:55 50° WSW 19:23:57 10° S visible
29 Oct 6.9 18:37:26 10° NW 18:43:46 69° WSW 18:50:02 10° SSE visible
29 Oct 9.5 20:24:35 10° W 20:25:55 11° W 20:27:15 10° WSW visible
30 Oct 9.3 19:48:17 10° WNW 19:52:02 16° WSW 19:55:45 10° SW visible
31 Oct 8.9 19:13:12 10° NW 19:18:05 24° WSW 19:22:54 10° SSW visible
01 Nov 8.4 18:38:29 10° NW 18:44:05 33° WSW 18:49:36 10° S visible
02 Nov 7.8 18:03:58 10° NW 18:10:01 46° WSW 18:15:57 10° S visible
